{"data":{"norad_id":68792,"epoch":"2026-05-24T21:49:11.705664Z","epoch_age_seconds":82222,"freshness":"FRESH","line1":"1 68792U 26088A   26144.90916326  .00004065  00000+0  27789-3 0  9999","line2":"2 68792  97.5034 294.7608 0014625 182.1544 177.9623 15.06604175  4780","mean_motion":15.06604175,"eccentricity":0.0014625,"inclination_deg":97.5034,"raan_deg":294.7608,"arg_perigee_deg":182.1544,"mean_anomaly_deg":177.9623,"bstar":0.00027789,"rev_number":478,"period_min":95.579185554826,"perigee_km":536.45845445573,"apogee_km":556.71326882603,"semimajor_km":6924.7228616409,"source":"CELESTRAK","updated_at":"2026-05-25T13:38:08.087094Z"}}